THOR ABLESTAR DEB, 130

Orbit data source: Space-Track

THOR ABLESTAR DEB, 130 is space debris in LEO originally from a launch on Thu, 29 Jun 1961 UTC launched from the Air Force Eastern Test Range (AFETR). Debris objects in space refer to the collection of defunct objects orbiting the Earth. Examples of debris include non-operational satellites, rocket bodies, and fragments generated from explosions, collisions, or faulty payload assembly.

Loading next visibility...
Identifier
130, 1961-015Q
Orbit
LEO
Country
Flag of USUS
Related business
Manufacturer
Unknown
Mission
Spacecraft
Bus & Motor
Unknown
Mass
Unknown
Launch date (UTC)
1961-06-29 (65 years ago)
Launch vehicle
Unknown
Launch site
Air Force Eastern Test Range (AFETR)
Object type
Payload
Rocket body
Debris
Shape & HBR
Unknown shape, 0.5 m
Radar Cross Section
Medium (>0.1 m² and <1 m²)

Expand to show TLE details & history
Last TLE update: 8 hours ago

TLE from 8 hours ago
0 THOR ABLESTAR DEB
1 00130U 61015Q   26174.89255182  .00000008  00000-0  57653-4 0  9995
2 00130  66.7699 235.1181 0092407 283.9178  75.1641 13.99429039312391
Epoch: 2026-06-23T21:25Z
TLE epoch observation values (Epoch: 2026-06-23T21:25:16.477Z)
Latitude
0.00008°
Longitude
1.74188°
Altitude
881.225 km
Speed
7.421 km/s
True Right ascension
15h 40m 28s
True Declination
0° 00' 00"
Sunlit
Object was in full shadow at epoch
Visualization orbit readout
Latitude
Unknown
Longitude
Unknown
Altitude
Unknown
Speed
Unknown
Apparent Right ascension
Unknown
Apparent Declination
Unknown
Sunlit
N/A
Visualization observer readout
Local Sidereal Time
16:37:07
Azimuth
Unknown
Elevation
Unknown
Doppler factor
Unknown
Orbital elements
Apogee altitude
961.364 km
Perigee altitude
826.962 km
Semi-major axis
7,272.3 km
Eccentricity
0.00924
Inclination
66.7699°
RAAN
235.1181°
Arg. of periapsis
283.9178°
True anomaly
76.19069°
Mean anomaly
75.1641°
Eccentric anomaly
75.6771°
Mean motion
3.49974 °/min
Orbital period
102.86 mins
BSTAR
0.000057653

Documentation

Showing up to 5 results
|